• In Hungary
  • List of Countries
  • For 7 days
  • Water Temperature
  • Satellite Maps
  • Weather Map
  • News
  • Weather Widgets
  • user-avatar
    Login

    Hourly Weather Borec

    Today, 22 January, Monday

    Time Temperature Precipitation Wind Pressure Humidity
    00:00 -8°C° 0 mm 1 mps 751 mmHg 93%
    01:00 -8°C° 0 mm 1 mps 751 mmHg 93%
    02:00 -10°C° 0 mm 2 mps 752 mmHg 92%
    03:00 -9°C° 0 mm 1 mps 752 mmHg 92%
    04:00 -9°C° 0 mm 1 mps 752 mmHg 93%
    05:00 -9°C° 0 mm 1 mps 752 mmHg 93%
    06:00 -9°C° 0 mm 1 mps 752 mmHg 94%
    07:00 -10°C° 0 mm 1 mps 753 mmHg 94%
    08:00 -10°C° 0 mm 1 mps 753 mmHg 94%
    09:00 -9°C° 0 mm 1 mps 753 mmHg 92%
    10:00 -7°C° 0 mm 1 mps 753 mmHg 90%
    11:00 -6°C° 0 mm 1 mps 754 mmHg 88%
    12:00 -6°C° 0 mm 1 mps 754 mmHg 87%
    13:00 -4°C° 0 mm 1 mps 754 mmHg 85%
    14:00 -3°C° 0 mm 1 mps 754 mmHg 84%
    15:00 -6°C° 0 mm 1 mps 754 mmHg 87%
    16:00 -7°C° 0 mm 1 mps 754 mmHg 89%
    17:00 -8°C° 0 mm 1 mps 755 mmHg 91%
    18:00 -8°C° 0 mm 1 mps 755 mmHg 92%
    19:00 -9°C° 0 mm 1 mps 755 mmHg 92%
    20:00 -9°C° 0 mm 1 mps 755 mmHg 92%
    21:00 -9°C° 0 mm 1 mps 755 mmHg 93%
    22:00 -9°C° 0 mm 1 mps 755 mmHg 93%
    23:00 -12°C° 0 mm 2 mps 755 mmHg 93%

    Tomorrow, 23 January, Tuesday

    Time Temperature Precipitation Wind Pressure Humidity
    00:00 -12°C° 0 mm 2 mps 756 mmHg 93%
    01:00 -12°C° 0 mm 2 mps 756 mmHg 94%
    02:00 -13°C° 0 mm 2 mps 756 mmHg 95%
    03:00 -13°C° 0 mm 2 mps 756 mmHg 95%
    04:00 -13°C° 0 mm 2 mps 757 mmHg 95%
    05:00 -13°C° 0 mm 2 mps 757 mmHg 96%
    06:00 -13°C° 0 mm 2 mps 757 mmHg 95%
    07:00 -14°C° 0 mm 2 mps 758 mmHg 95%
    08:00 -14°C° 0 mm 2 mps 758 mmHg 95%
    09:00 -13°C° 0 mm 2 mps 758 mmHg 92%
    10:00 -10°C° 0 mm 2 mps 759 mmHg 89%
    11:00 -9°C° 0 mm 2 mps 759 mmHg 85%
    12:00 -9°C° 0 mm 2 mps 759 mmHg 85%
    13:00 -8°C° 0 mm 2 mps 759 mmHg 84%
    14:00 -7°C° 0 mm 2 mps 759 mmHg 84%
    15:00 -8°C° 0 mm 2 mps 760 mmHg 86%
    16:00 -9°C° 0 mm 2 mps 760 mmHg 89%
    17:00 -10°C° 0 mm 2 mps 761 mmHg 91%
    18:00 -10°C° 0 mm 2 mps 761 mmHg 91%
    19:00 -12°C° 0 mm 2 mps 761 mmHg 91%
    20:00 -12°C° 0 mm 2 mps 762 mmHg 90%
    21:00 -12°C° 0 mm 2 mps 762 mmHg 90%
    22:00 -12°C° 0 mm 2 mps 762 mmHg 90%
    23:00 -10°C° 0 mm 1 mps 762 mmHg 89%

    Day after tomorrow, 24 January, Wednesday

    Time Temperature Precipitation Wind Pressure Humidity
    00:00 -13°C° 0 mm 2 mps 763 mmHg 89%
    01:00 -13°C° 0 mm 2 mps 763 mmHg 88%
    02:00 -13°C° 0 mm 2 mps 763 mmHg 88%
    03:00 -11°C° 0 mm 1 mps 763 mmHg 88%
    04:00 -11°C° 0 mm 1 mps 764 mmHg 87%
    05:00 -11°C° 0 mm 1 mps 764 mmHg 87%
    06:00 -11°C° 0 mm 1 mps 764 mmHg 87%
    07:00 -11°C° 0 mm 1 mps 764 mmHg 87%
    08:00 -12°C° 0 mm 1 mps 764 mmHg 87%
    09:00 -10°C° 0 mm 1 mps 764 mmHg 84%
    10:00 -10°C° 0 mm 2 mps 764 mmHg 82%
    11:00 -8°C° 0 mm 2 mps 765 mmHg 79%
    12:00 -7°C° 0 mm 2 mps 764 mmHg 79%
    13:00 -7°C° 0 mm 2 mps 764 mmHg 78%
    14:00 -7°C° 0 mm 3 mps 764 mmHg 78%
    15:00 -8°C° 0 mm 3 mps 763 mmHg 79%
    16:00 -9°C° 0 mm 3 mps 763 mmHg 81%
    17:00 -10°C° 0 mm 3 mps 763 mmHg 82%
    18:00 -10°C° 0 mm 4 mps 763 mmHg 81%
    19:00 -10°C° 0 mm 4 mps 763 mmHg 79%
    20:00 -9°C° 0 mm 4 mps 763 mmHg 77%
    21:00 -9°C° 0 mm 4 mps 763 mmHg 77%
    22:00 -10°C° 0 mm 5 mps 762 mmHg 76%
    23:00 -10°C° 0 mm 5 mps 762 mmHg 76%

    25 January, Thursday

    Time Temperature Precipitation Wind Pressure Humidity
    00:00 -11°C° 0 mm 5 mps 762 mmHg 76%
    01:00 -11°C° 0 mm 5 mps 762 mmHg 76%
    02:00 -11°C° 0 mm 5 mps 761 mmHg 76%
    03:00 -11°C° 0 mm 5 mps 761 mmHg 77%
    04:00 -12°C° 0 mm 5 mps 761 mmHg 77%
    05:00 -12°C° 0 mm 5 mps 760 mmHg 78%
    06:00 -12°C° 0 mm 5 mps 760 mmHg 78%
    07:00 -12°C° 0 mm 5 mps 760 mmHg 79%
    08:00 -11°C° 0 mm 5 mps 760 mmHg 80%
    09:00 -11°C° 0 mm 5 mps 760 mmHg 79%
    10:00 -10°C° 0 mm 5 mps 760 mmHg 79%
    11:00 -8°C° 0 mm 5 mps 760 mmHg 79%
    12:00 -7°C° 0 mm 5 mps 760 mmHg 78%
    13:00 -7°C° 0 mm 5 mps 759 mmHg 77%
    14:00 -6°C° 0 mm 5 mps 759 mmHg 76%
    15:00 -6°C° 0 mm 5 mps 759 mmHg 76%
    16:00 -6°C° 0 mm 5 mps 759 mmHg 76%
    17:00 -6°C° 0 mm 5 mps 759 mmHg 76%
    18:00 -6°C° 0 mm 5 mps 759 mmHg 76%
    19:00 -6°C° 0 mm 5 mps 759 mmHg 76%
    20:00 -6°C° 0 mm 6 mps 759 mmHg 76%
    21:00 -6°C° 0 mm 5 mps 759 mmHg 77%
    22:00 -7°C° 0 mm 5 mps 759 mmHg 77%
    23:00 -7°C° 0 mm 5 mps 759 mmHg 78%

    26 January, Friday

    Time Temperature Precipitation Wind Pressure Humidity
    00:00 -7°C° 0 mm 5 mps 759 mmHg 78%
    01:00 -8°C° 0 mm 5 mps 759 mmHg 79%
    02:00 -8°C° 0 mm 5 mps 759 mmHg 79%
    03:00 -8°C° 0 mm 5 mps 759 mmHg 80%
    04:00 -10°C° 0 mm 5 mps 759 mmHg 80%
    05:00 -10°C° 0 mm 5 mps 759 mmHg 80%
    06:00 -10°C° 0 mm 5 mps 759 mmHg 80%
    07:00 -10°C° 0 mm 5 mps 759 mmHg 79%
    08:00 -10°C° 0 mm 5 mps 759 mmHg 79%
    09:00 -9°C° 0 mm 6 mps 759 mmHg 77%
    10:00 -8°C° 0 mm 6 mps 759 mmHg 75%
    11:00 -6°C° 0 mm 6 mps 759 mmHg 72%
    12:00 -6°C° 0 mm 6 mps 759 mmHg 71%
    13:00 -5°C° 0 mm 6 mps 759 mmHg 70%
    14:00 -5°C° 0 mm 6 mps 759 mmHg 69%
    15:00 -6°C° 0 mm 6 mps 759 mmHg 71%
    16:00 -6°C° 0 mm 6 mps 759 mmHg 72%
    17:00 -7°C° 0 mm 5 mps 759 mmHg 74%
    18:00 -8°C° 0 mm 6 mps 759 mmHg 74%
    19:00 -8°C° 0 mm 6 mps 759 mmHg 73%
    20:00 -9°C° 0 mm 6 mps 759 mmHg 73%
    21:00 -9°C° 0 mm 6 mps 759 mmHg 73%
    22:00 -9°C° 0 mm 6 mps 759 mmHg 74%
    23:00 -9°C° 0 mm 6 mps 759 mmHg 74%

    27 January, Saturday

    Time Temperature Precipitation Wind Pressure Humidity
    00:00 -9°C° 0 mm 6 mps 759 mmHg 76%
    01:00 -9°C° 0 mm 6 mps 759 mmHg 77%
    02:00 -8°C° 0 mm 5 mps 760 mmHg 78%
    03:00 -8°C° 0 mm 5 mps 759 mmHg 80%
    04:00 -8°C° 0 mm 5 mps 759 mmHg 82%
    05:00 -8°C° 0 mm 5 mps 759 mmHg 83%
    06:00 -10°C° 0 mm 5 mps 759 mmHg 85%
    07:00 -10°C° 0 mm 5 mps 759 mmHg 87%
    08:00 -10°C° 0 mm 5 mps 760 mmHg 89%
    09:00 -10°C° 0 mm 5 mps 760 mmHg 89%
    10:00 -8°C° 0 mm 5 mps 760 mmHg 89%
    11:00 -8°C° 0 mm 5 mps 760 mmHg 88%
    12:00 -8°C° 0 mm 5 mps 760 mmHg 88%
    13:00 -7°C° 0 mm 5 mps 760 mmHg 88%
    14:00 -7°C° 0 mm 5 mps 760 mmHg 87%
    15:00 -7°C° 0 mm 5 mps 760 mmHg 88%
    16:00 -7°C° 0 mm 5 mps 760 mmHg 89%
    17:00 -7°C° 0 mm 5 mps 760 mmHg 90%
    18:00 -6°C° 0.1 mm 5 mps 760 mmHg 90%
    19:00 -6°C° 0.1 mm 5 mps 759 mmHg 91%
    20:00 -6°C° 0.1 mm 6 mps 759 mmHg 91%
    21:00 -6°C° 0.1 mm 6 mps 759 mmHg 91%
    22:00 -5°C° 0.1 mm 6 mps 759 mmHg 91%
    23:00 -5°C° 0.1 mm 6 mps 758 mmHg 91%
    Show more